www.pogodaiklimat.ru

Погода и климат >> Архив погоды >> Украина >> Харьков


АРХИВ ПОГОДЫ в Харькове

Время (UTC), дата Ветер
(напр.,м/с)
 
Видим.   Явления Облачность Т
(С)
Тd
(С)
f
(%)
Тe
(С)
Тes
(С)
Комфортность P
(гПа)
Po
(гПа)
Тmin
(С)
Tmax
(С)
R
(мм)
R24
(мм)
S
(см)
21 10.07 СВ 4 10 км ясно +23.3 +13.1 53 +26 +26 жарко 1013.5 995.7
00 11.07 С 4 10 км ясно +21.2 +13.0 59 +23 +23 комфорт 1013.1 995.2
03 11.07 В 2 10 км слабый ливневой дождь 9/4 1000 м
[Cb calv Ac trans]
+19.1 +15.4 79 +21 +21 комфорт 1013.4 995.4
06 11.07 С 3 10 км {ливн. осадки} 9/3 1000 м
[Cb calv Ac trans]
+23.7 +15.4 60 +27 +29 жарко 1013.2 995.4 +19.1 0.0
09 11.07 СЗ 1 10 км {ливн. осадки} 9/4 1000 м
[Cb calv Ac trans]
+25.3 +16.8 59 +29 +35 душно 1012.8 995.2
12 11.07 С 4 10 км {ливн. осадки} 9/3 1000 м
[Sc Ac trans]
+24.8 +14.6 53 +27 +30 жарко 1012.0 994.3
15 11.07 З 2 10 км 9/4 1000 м
[Cb calv Ac trans]
+26.5 +17.1 56 +30 +31 душно 1010.4 992.9
18 11.07 З 4 10 км зарница 6/4 600 м
[Cb calv Ac trans]
+23.2 +17.4 70 +29 +29 душно 1010.8 993.1 +26.7 0.0
21 11.07 С 8 10 км зарница 6/4 1000 м
[Cb calv Ac trans]
+21.0 +14.5 66 +24 +24 комфорт 1012.3 994.4
00 12.07 СВ 4 10 км 5/0
[Ac trans]
+18.6 +14.5 77 +19 +19 тепло 1012.1 994.1
03 12.07 С 3 10 км 3/0
[Ac trans]
+18.0 +15.6 86 +18 +19 по сезону 1012.5 994.4
06 12.07 С 3 10 км 3/0
[Ac trans]
+22.2 +16.8 71 +27 +33 душно 1012.2 994.4 +17.0
09 12.07 С 4 10 км 6/6 1140 м
[Cu hum]
+26.3 +16.3 54 +30 +34 душно 1011.7 994.1
12 12.07 С 5 10 км 6/6 1410 м
[Cu hum]
+27.3 +14.6 46 +30 +33 душно 1011.4 993.9
15 12.07 С 4 10 км 4/4 1000 м
[Cu hum]
+26.5 +15.0 49 +29 +30 жарко 1011.2 993.6
18 12.07 С 2 10 км 3/0
[Ci fib]
+23.4 +15.3 60 +28 +28 душно 1011.5 993.8 +28.4
21 12.07 С 2 10 км ясно +21.3 +15.5 70 +25 +25 комфорт 1012.0 994.1
00 13.07 С 2 10 км ясно +19.0 +15.8 82 +21 +21 комфорт 1011.7 993.7
03 13.07 штиль 0 10 км ясно +18.4 +15.7 84 +19 +20 по сезону 1011.4 993.4
06 13.07 СВ 2 10 км ясно +26.4 +14.8 49 +29 +38 жарко 1010.8 993.2 +17.4
09 13.07 С 2 10 км 5/5 1000 м
[Cu med, cong]
+28.9 +13.3 38 +30 +39 жарко 1010.0 992.6
12 13.07 ЮВ 1 10 км 6/6 1000 м
[Cu med, cong]
+29.7 +11.5 33 +30 +36 жарко 1008.8 991.4
15 13.07 С 2 10 км 6/4 1000 м
[Cu med, cong Ac trans]
+30.3 +13.3 35 +32 +33 жарко 1007.7 990.4
18 13.07 С 2 10 км 5/0
[Ac trans]
+26.4 +14.0 46 +29 +29 жарко 1008.3 990.8 +31.3
21 13.07 СЗ 2 10 км 4/0
[Ac trans]
+23.9 +16.2 62 +27 +27 жарко 1008.2 990.6
00 14.07 СЗ 1 10 км зарница 5/3 1000 м
[Cb calv Ac trans]
+21.6 +16.7 74 +26 +26 душно 1007.5 989.7
03 14.07 СВ 2 10 км 4/0
[Ac trans Ci fib]
+22.3 +17.0 72 +27 +27 душно 1006.9 989.2
06 14.07 Ю 1 10 км 5/0
[Ac trans Ci fib]
+27.2 +15.9 50 +30 +38 душно 1006.3 988.9 +20.4
09 14.07 СЗ 3 10 км гроза без осадков 8/8 1000 м
[Cb calv]
+30.5 +14.5 38 +33 +35 душно 1004.8 987.6
12 14.07 В 5 10 км гроза без осадков {ливн. осадки} 9/9 1000 м
[Cb calv]
+22.1 +16.9 72 +26 +27 душно 1006.3 988.6
15 14.07 С 4 10 км в посл. час ливневой дождь {гроза} 9/8 600 м
[Cb calv Ac trans]
+21.6 +18.3 82 +26 +27 душно 1006.5 988.8
18 14.07 З 1 10 км {гроза, ливн. осадки} 9/0
[Ac trans]
+20.7 +18.8 89 +26 +26 душно 1005.4 987.6 +30.5 5
21 14.07 СЗ 1 10 км 8/0
[Ac trans]
+19.7 +17.8 89 +23 +23 комфорт 1006.2 988.4
00 15.07 З 3 10 км слабый ливневой дождь 9/4 1000 м
[Cb calv Ac trans]
+19.4 +18.0 92 +22 +22 комфорт 1004.9 987.1
03 15.07 В 3 10 км {ливн. осадки} 9/0
[Ac trans]
+18.6 +17.5 93 +20 +20 по сезону 1005.4 987.5
06 15.07 С 2 10 км {ливн. осадки} 9/3 600 м
[Sc Ac trans Ci fib]
+20.6 +17.0 80 +25 +28 комфорт 1004.8 987.0 +18.3 0.0
09 15.07 СЗ 2 10 км 9/8 900 м
[Cu med, cong Ac trans]
+24.0 +16.6 63 +27 +30 жарко 1004.8 987.2
12 15.07 С 3 10 км 9/5 1020 м
[Cb calv Ac trans Ci]
+24.9 +16.7 60 +28 +32 жарко 1004.2 986.7
15 15.07 СВ 3 10 км 9/5 870 м
[Cu med, cong Ci]
+24.2 +17.5 66 +28 +29 душно 1003.9 986.4
18 15.07 В 2 10 км 9/0
[Ac trans Ci fib]
+20.9 +18.0 83 +26 +26 душно 1004.9 987.1 +25.8
21 15.07 В 1 10 км 4/0
[Ac trans Ci fib]
+19.2 +17.6 90 +22 +22 комфорт 1004.8 986.9
00 16.07 штиль 0 7000 м дымка 8/5 1000 м
[Sc Ci fib]
+18.6 +17.5 93 +20 +20 тепло 1004.5 986.6
03 16.07 штиль 0 5000 м дымка 8/0
[Ac trans Ci fib]
+18.0 +17.2 95 +18 +19 по сезону 1004.6 986.7
06 16.07 штиль 0 10 км 8/3 600 м
[Cu hum Ci fib]
+22.0 +18.2 79 +27 +34 душно 1003.8 986.1 +17.2
09 16.07 С 3 10 км 9/9 600 м
[Cb calv]
+23.1 +17.5 71 +28 +30 душно 1003.9 986.3
12 16.07 С 4 10 км 9/6 930 м
[Cu hum Ac trans]
+25.0 +16.1 58 +28 +30 жарко 1002.8 985.3
15 16.07 С 5 10 км 9/6 600 м
[Cb calv Ci]
+23.4 +17.0 67 +29 +29 душно 1002.2 984.6
18 16.07 С 1 10 км 9/0
[Ac trans Ci]
+21.1 +17.7 81 +25 +25 комфорт 1002.3 984.6 +26.0
21 16.07 З 1 10 км 9/0
[Ac trans Ci]
+19.4 +17.1 87 +23 +23 комфорт 1001.5 983.7
00 17.07 З 1 6000 м слабый ливневой дождь 9/8 600 м
[Cb calv Ac trans]
+19.1 +17.8 92 +22 +22 комфорт 1001.2 983.4
03 17.07 СЗ 1 10 км слабый ливневой дождь 9/6 600 м
[Cb cap Ac trans]
+18.4 +17.6 95 +20 +20 по сезону 1000.9 983.1
06 17.07 З 2 8000 м слабый ливневой дождь 10/6 660 м
[Cb cap Ac und]
+18.7 +17.7 94 +20 +21 по сезону 1000.6 982.8 +18.1 6
09 17.07 З 4 10 км в посл. час ливневой дождь 9/6 540 м
[Cb cap Ac trans]
+20.3 +18.2 88 +24 +26 комфорт 1000.2 982.5
12 17.07 З 5 10 км слабый ливневой дождь 9/8 630 м
[Cb cap Ac trans]
+22.1 +17.4 75 +27 +28 душно 1000.1 982.5
15 17.07 З 4 10 км {ливн. осадки} 9/3 1000 м
[Sc Ac trans Ci fib]
+22.2 +15.6 66 +26 +27 душно 999.8 982.2
18 17.07 штиль 0 10 км в посл. час ливневой дождь 9/3 600 м
[Cb calv Ac trans Ci]
+20.4 +17.7 84 +24 +24 комфорт 1000.5 982.8 +23.4 4

 

Местоположение метеостанции Харьков (Харьковская область, Украина): широта 49.97 долгота 36.13 высота над уровнем моря 155 м.

В архиве по умолчанию представлена погода в Харькове за последнюю неделю. Архивные данные за месяц целиком и за предыдущие месяцы, начиная с января 2011 года, Вы можете получить, выбрав интересующий диапазон дат из раскрывающегося списка и нажав кнопку "Ввод!".


*Определитесь, кто Вы:
робот инопланетянин человек

Внимание! Время в таблицах - всемирное. Для получения местного времени необходимо прибавить поправку, которая в Харькове равна 2 ч.

Смотрите также архив погоды в соседних городах и на ближайших метеорологических станциях:

Погода в Золочеве (Львовская область, Украина) (39 км)
Погода в Боходухове (Харьковская область, Украина) (50 км)
Погода в Слобожанском (Донецкая область, Украина) (50 км)
Погода в Коломаке (Харьковская область, Украина) (66 км)
Погода в Белгороде (Белгородская область, Россия) (80 км)
Погода в Краснограде (Харьковская область, Украина) (82 км)
Погода в Великом Бурлуке (Харьковская область, Украина) (90 км)
Погода в Готне (Белгородская область, Россия) (96 км)
Погода в Купянске (Харьковская область, Украина) (119 км)
Погода в Лозовой (Харьковская область, Украина) (120 км)

Пояснения к столбцам:

Ветер - указаны скорость ветра в м/с - средняя за 10 мин, порывы в срок и между сроками (в фигурных скобках) и направление, откуда дует ветер: С - северный, СВ - северо-восточный, В - восточный, ЮВ - юго-восточный, Ю - южный, ЮЗ - юго-западный, З - западный, СЗ - северо-западный.
Видимость - горизонтальная дальность видимости в метрах или километрах. При видимости от 1 до 10 км при отсутствии осадков обычно наблюдается дымка, при ухудшении видимости до 1 км и менее - туман. В сухую погоду видимость может ухудшаться дымом, пылью или мглою.
Явления - указаны атмосферные явления, наблюдавшиеся в срок или в последний час перед сроком; фигурными скобками обозначены явления, наблюдавшиеся между сроками (за 1-3 часа до срока); квадратными скобками обозначены град или гололедные отложения с указанием их диаметра в мм.
Облачность - указаны через наклонную черту общая и нижняя облачность в баллах и высота нижней границы облаков в метрах; квадратными скобками обозначены формы облаков: Ci - перистые, Cs - перисто-слоистые, Cc - перисто-кучевые, Ac - высококучевые, As - высокослоистые, Sc - слоисто-кучевые, Ns - слоисто-дождевые, Cu - кучевые, Cb - кучево-дождевые. Подробнее классификацию облаков см. в Атласе облаков (PDF).
T - Температура воздуха - температура, измеренная на высоте 2 м над землей.
Td - Температура точки росы - температура, при понижении до которой содержащийся в воздухе водяной пар достигнет насыщения.
f - Относительная влажность воздуха - влажноcть воздуха, измеренная на высоте 2 м над землей.
Te - Эффективная температура - температура, которую ощущает одетый по сезону человек в тени. Характеристика душности погоды. При расчете учитывается влияние влажности воздуха и скорости ветра на теплоощущения человека.
Tes - Эффективная температура на солнце - температура, которую ощущает человек, с поправкой на солнечный нагрев. Характеристика знойности погоды. Зависит от высоты солнца над горизонтом, облачности и скорости ветра. Ночью, в пасмурную погоду, а также при ветре 12 м/с и более поправка равна нулю.
P - Атмосферное давление - приведенное к уровню моря атмосферное давление.
Po - Атмосферное давление - измеренное на уровне метеостанции атмосферное давление.
Tmin - Минимальная температура - минимум температуры воздуха на высоте 2 м над землей.
Tmax - Максимальная температура - максимум температуры воздуха на высоте 2 м над землей.
R - Количество осадков - Количество выпавших осадков за период времени, мм. При наведении курсора мыши на число - период времени, за который выпало указанное количество осадков.
R24 - Количество осадков - Количество выпавших осадков за 24 часа, мм.
S - Снежный покров - Высота снежного покрова, см. При наведении курсора мыши на число - состояние снежного покрова и степень покрытия местности в баллах.